User: anonymous   Login
Location: Seven Kings
(51.5667°N, 0.1000°E)
Time: 02:36:08
(UTC+00:00)
Language:

Envisat - Orbit

View from above orbital plane
View from above orbital plane
View from above satellite
View from above satellite

Ground track
Ground track

The orbit data is extracted from the following two-line orbital elements,

1 27386U 02009A   21206.73782929  .00000033  00000-0  24497-4 0  9991
2 27386  98.1499 198.8427 0001394  89.9558  82.7658 14.38034801 16575
Epoch (UTC): 25 July 2021 17:42:28
Eccentricity: 0.0001394
inclination: 98.1499°
perigee height: 764 km
apogee height: 766 km
right ascension of ascending node: 198.8427°
argument of perigee: 89.9558°
revolutions per day: 14.38034801
mean anomaly at epoch: 82.7658°
orbit number at epoch: 1657

The dashed part of the orbit path shows where the satellite is in the earth's shadow,  

DLR